Darstellungsparameter: Aktuell verwendete Einstellungen:
Skalierung der Graphiken ... ?
xyx+y,   Skalierungsfaktor:      Skalierung: Modus: x, Faktor: 1
Darstellungszeitraum ... ?
Vom - - bis: - -   Zeitraum: 23.09.2010 - 23.09.2010
Min/Max/Avg-Anzeige ... ?
Zeige MMA aktuell
Zeige MMA Monat
Zeige MMA alles
Zeige --A aktuell
Zeige --A Monat
Zeige --A alles
Keine MMA-Anzeige
MMA:
Minimum Maximum Average (ber die Originaldaten)
MMA-Basis: 23.09.2010 - 23.09.2010
Quicknavigation für Darstellung... ?
Tage:      1T, 2T, 3T, 5T -1T -2T -3T -5T +1T +2T +3T +5T
Wochen: 1W, 2W, 3W -1W -2W -3W +1W +2W +3W
Monate: 1M, 3M, 6M -1M -3M -6M +1M +3M +6M
Jahre:    1J, 3J, 5J, 10J -1J -3J -5J -10J +1J +3J +5J +10J
Nutze für die Darstellung ... ?
Originaldaten oder Mittelwerte auf ...
Stundenbasis Tagesbasis Wochenbasis
Monatsbasis Jahresbasis      Datenbasis: Original-Daten
Darstellen als:
Statistik (Auto) Statistik J:M      Darstellung:
Zur Graphik,    zurück zur Übersicht aller Sensoren.
 
Tabellarische Datenbersicht: ?
 
Sensor: Nr:Datum:Temp:Abs-Feuchte:Windchill:Wind:
Aussen-T/F 1 23-09-2010 00:08:02 14.4 C 8.53 g/m*3 14.4 C 0 km/h
2 23-09-2010 00:20:02 14.2 C 8.67 g/m*3 14.2 C 0 km/h
3 23-09-2010 00:32:02 14 C 8.56 g/m*3 14 C 0 km/h
4 23-09-2010 00:44:02 13.8 C 8.7 g/m*3 13.8 C 0 km/h
5 23-09-2010 00:56:02 13.7 C 8.76 g/m*3 13.7 C 0 km/h
6 23-09-2010 01:08:02 13.5 C 8.77 g/m*3 13.5 C 0 km/h
7 23-09-2010 01:20:02 13.4 C 8.72 g/m*3 13.4 C 0 km/h
8 23-09-2010 01:32:02 13.2 C 8.73 g/m*3 13.2 C 0 km/h
9 23-09-2010 01:44:02 13.1 C 8.67 g/m*3 13.1 C 0 km/h
10 23-09-2010 01:56:03 12.9 C 8.68 g/m*3 12.9 C 0 km/h
11 23-09-2010 02:08:03 12.8 C 8.74 g/m*3 12.8 C 0 km/h
12 23-09-2010 02:20:03 12.6 C 8.74 g/m*3 12.6 C 0 km/h
13 23-09-2010 02:32:03 12.4 C 8.74 g/m*3 12.4 C 0 km/h
14 23-09-2010 02:44:03 12.3 C 8.69 g/m*3 12.3 C 0 km/h
15 23-09-2010 02:56:03 12.1 C 8.58 g/m*3 12.1 C 0 km/h
16 23-09-2010 03:08:03 12 C 8.53 g/m*3 12 C 0 km/h
17 23-09-2010 03:20:03 11.8 C 8.53 g/m*3 11.8 C 0 km/h
18 23-09-2010 03:32:03 11.8 C 8.53 g/m*3 11.8 C 0 km/h
19 23-09-2010 03:44:03 11.8 C 8.63 g/m*3 11.8 C 0 km/h
20 23-09-2010 03:56:03 11.6 C 8.63 g/m*3 11.6 C 0 km/h
21 23-09-2010 04:08:03 11.4 C 8.52 g/m*3 11.4 C 0 km/h
22 23-09-2010 04:20:03 11.2 C 8.41 g/m*3 11.2 C 0 km/h
23 23-09-2010 04:32:03 11.2 C 8.41 g/m*3 11.2 C 0 km/h
24 23-09-2010 04:44:03 11 C 8.31 g/m*3 11 C 0 km/h
25 23-09-2010 04:56:03 11 C 8.31 g/m*3 11 C 0 km/h
Sensor: Nr:Datum:Temp:Abs-Feuchte:Windchill:Wind:
Aussen-T/F 26 23-09-2010 05:08:03 10.9 C 8.36 g/m*3 10.9 C 0 km/h
27 23-09-2010 05:20:03 10.7 C 8.25 g/m*3 10.7 C 0 km/h
28 23-09-2010 05:32:03 10.6 C 8.2 g/m*3 10.6 C 0 km/h
29 23-09-2010 05:44:03 10.5 C 8.15 g/m*3 10.5 C 0 km/h
30 23-09-2010 05:56:03 10.5 C 8.15 g/m*3 10.5 C 0 km/h
31 23-09-2010 06:08:03 10.4 C 8.1 g/m*3 10.4 C 0 km/h
32 23-09-2010 06:20:04 10.5 C 8.24 g/m*3 10.5 C 0 km/h
33 23-09-2010 06:32:04 10.6 C 8.3 g/m*3 10.6 C 0 km/h
34 23-09-2010 06:44:04 10.4 C 8.19 g/m*3 10.4 C 0 km/h
35 23-09-2010 06:56:04 10.4 C 8.19 g/m*3 10.4 C 0 km/h
36 23-09-2010 07:08:02 10.5 C 8.24 g/m*3 10.5 C 0 km/h
37 23-09-2010 07:20:01 10.4 C 8.19 g/m*3 10.4 C 0 km/h
38 23-09-2010 07:32:02 10.5 C 8.24 g/m*3 10.5 C 0 km/h
39 23-09-2010 07:44:02 10.6 C 8.3 g/m*3 10.6 C 0 km/h
40 23-09-2010 07:56:02 10.6 C 8.3 g/m*3 10.6 C 0 km/h
41 23-09-2010 08:08:02 10.6 C 8.3 g/m*3 10.6 C 0 km/h
42 23-09-2010 08:20:01 10.7 C 8.35 g/m*3 10.7 C 0 km/h
43 23-09-2010 08:32:02 10.8 C 8.4 g/m*3 10.8 C 0 km/h
44 23-09-2010 08:44:02 11 C 8.51 g/m*3 11 C 0 km/h
45 23-09-2010 08:56:02 11.3 C 8.57 g/m*3 11.3 C 0 km/h
46 23-09-2010 09:08:01 11.4 C 8.52 g/m*3 11.4 C 0 km/h
47 23-09-2010 09:20:01 11.4 C 8.52 g/m*3 11.4 C 0 km/h
48 23-09-2010 09:32:02 11.4 C 8.52 g/m*3 11.4 C 0 km/h
49 23-09-2010 09:44:02 11.7 C 8.79 g/m*3 11.7 C 0 km/h
50 23-09-2010 09:56:02 12.3 C 8.9 g/m*3 12.3 C 0 km/h
Sensor: Nr:Datum:Temp:Abs-Feuchte:Windchill:Wind:
Aussen-T/F 51 23-09-2010 10:08:02 12.4 C 8.96 g/m*3 12.4 C 0 km/h
52 23-09-2010 10:20:02 12.5 C 9.02 g/m*3 12.5 C 0 km/h
53 23-09-2010 10:32:02 12.9 C 9.24 g/m*3 12.9 C 0 km/h
54 23-09-2010 10:44:02 13.3 C 9.36 g/m*3 13.3 C 0 km/h
55 23-09-2010 10:56:02 13.8 C 9.65 g/m*3 13.8 C 0 km/h
56 23-09-2010 11:08:02 14.1 C 9.71 g/m*3 14.1 C 0 km/h
57 23-09-2010 11:20:02 15 C 10 g/m*3 15 C 0 km/h
58 23-09-2010 11:32:02 15.8 C 10.23 g/m*3 15.8 C 0 km/h
59 23-09-2010 11:44:02 16.3 C 10.13 g/m*3 16.3 C 0 km/h
60 23-09-2010 11:56:02 17 C 10.27 g/m*3 17 C 0 km/h
61 23-09-2010 12:08:02 17.5 C 10.44 g/m*3 17.5 C 0 km/h
62 23-09-2010 12:20:02 18 C 10.44 g/m*3 18 C 0 km/h
63 23-09-2010 12:32:02 18.7 C 10.73 g/m*3 18.7 C 0 km/h
64 23-09-2010 12:44:02 19.2 C 10.55 g/m*3 19.2 C 0 km/h
65 23-09-2010 12:56:02 19.9 C 10.82 g/m*3 19.9 C 0 km/h
66 23-09-2010 13:08:02 20.5 C 11.03 g/m*3 20.5 C 0 km/h
67 23-09-2010 13:20:02 21.4 C 11.06 g/m*3 21.4 C 0 km/h
68 23-09-2010 13:32:01 22.3 C 11.26 g/m*3 22.3 C 0 km/h
69 23-09-2010 13:44:01 23.3 C 10.66 g/m*3 23.3 C 0 km/h
70 23-09-2010 13:56:02 24 C 9.14 g/m*3 24 C 0 km/h
71 23-09-2010 14:08:01 24.5 C 9.62 g/m*3 24.5 C 0 km/h
72 23-09-2010 14:20:02 23.8 C 10.11 g/m*3 23.8 C 0 km/h
73 23-09-2010 14:32:02 23.7 C 10.48 g/m*3 23.7 C 0 km/h
74 23-09-2010 14:44:02 23.8 C 10.54 g/m*3 23.8 C 0 km/h
75 23-09-2010 14:56:02 24.5 C 10.3 g/m*3 24.5 C 0 km/h
Sensor: Nr:Datum:Temp:Abs-Feuchte:Windchill:Wind:
Aussen-T/F 76 23-09-2010 15:08:02 25.2 C 8.85 g/m*3 25.2 C 0 km/h
77 23-09-2010 15:20:02 25.2 C 9.78 g/m*3 25.2 C 0 km/h
78 23-09-2010 15:32:02 24.8 C 9.33 g/m*3 24.8 C 0 km/h
79 23-09-2010 15:44:03 25.1 C 9.26 g/m*3 25.1 C 0 km/h
80 23-09-2010 15:56:01 24.9 C 9.61 g/m*3 24.9 C 0 km/h
81 23-09-2010 16:08:02 25.1 C 10.19 g/m*3 25.1 C 0 km/h
82 23-09-2010 16:20:01 26 C 9.74 g/m*3 26 C 0 km/h
83 23-09-2010 16:32:01 25.6 C 9.05 g/m*3 25.6 C 0 km/h
84 23-09-2010 16:44:01 24.9 C 10.07 g/m*3 24.9 C 0 km/h
85 23-09-2010 16:56:01 24.1 C 10.28 g/m*3 24.1 C 0 km/h
86 23-09-2010 17:08:01 23.7 C 10.91 g/m*3 23.7 C 0 km/h
87 23-09-2010 17:20:02 23.4 C 10.72 g/m*3 23.4 C 0 km/h
88 23-09-2010 17:32:01 23.2 C 10.81 g/m*3 23.2 C 0 km/h
89 23-09-2010 17:44:01 23.3 C 10.45 g/m*3 23.3 C 0 km/h
90 23-09-2010 17:56:02 23.8 C 10.76 g/m*3 23.8 C 0 km/h
91 23-09-2010 18:08:01 23.3 C 10.45 g/m*3 23.3 C 0 km/h
92 23-09-2010 18:20:02 22.6 C 10.25 g/m*3 22.6 C 0 km/h
93 23-09-2010 18:32:01 21.7 C 10.68 g/m*3 21.7 C 0 km/h
94 23-09-2010 18:44:01 21.6 C 10.81 g/m*3 21.6 C 0 km/h
95 23-09-2010 18:56:02 21.4 C 10.87 g/m*3 21.4 C 0 km/h
96 23-09-2010 19:08:02 20.9 C 10.93 g/m*3 20.9 C 0 km/h
97 23-09-2010 19:20:02 20.4 C 10.97 g/m*3 20.4 C 0 km/h
98 23-09-2010 19:32:02 19.8 C 11.1 g/m*3 19.8 C 0 km/h
99 23-09-2010 19:44:02 19.4 C 11.18 g/m*3 19.4 C 0 km/h
100 23-09-2010 19:56:02 19 C 11.08 g/m*3 19 C 0 km/h
Sensor: Nr:Datum:Temp:Abs-Feuchte:Windchill:Wind:
Aussen-T/F 101 23-09-2010 20:08:01 18.8 C 11.43 g/m*3 18.8 C 0 km/h
102 23-09-2010 20:20:02 18.6 C 11.3 g/m*3 18.6 C 0 km/h
103 23-09-2010 20:32:02 18.6 C 11.3 g/m*3 18.6 C 0 km/h
104 23-09-2010 20:44:02 18.4 C 11.32 g/m*3 18.4 C 0 km/h
105 23-09-2010 20:56:02 18.1 C 11.12 g/m*3 18.1 C 0 km/h
106 23-09-2010 21:08:02 18.4 C 11.48 g/m*3 18.4 C 0 km/h
107 23-09-2010 21:20:01 18.3 C 11.41 g/m*3 18.3 C 0 km/h
108 23-09-2010 21:32:02 18.4 C 11.64 g/m*3 18.4 C 0 km/h
109 23-09-2010 21:44:02 18.7 C 11.53 g/m*3 18.7 C 0 km/h
110 23-09-2010 21:57:02 18.7 C 11.37 g/m*3 18.7 C 0 km/h
111 23-09-2010 22:09:02 18.5 C 11.23 g/m*3 18.5 C 0 km/h
112 23-09-2010 22:21:02 18.5 C 11.39 g/m*3 18.5 C 0 km/h
113 23-09-2010 22:33:02 17.9 C 11.6 g/m*3 17.9 C 0 km/h
114 23-09-2010 22:45:02 17.7 C 12.52 g/m*3 17.7 C 0 km/h
115 23-09-2010 22:57:02 17.1 C 12.23 g/m*3 17.1 C 0 km/h
116 23-09-2010 23:09:02 16.9 C 12.37 g/m*3 16.9 C 0 km/h
117 23-09-2010 23:21:02 16.5 C 12.22 g/m*3 16.5 C 0 km/h
118 23-09-2010 23:33:02 16.4 C 12.28 g/m*3 16.4 C 0 km/h
119 23-09-2010 23:45:02 16.2 C 12.14 g/m*3 16.2 C 0 km/h
120 23-09-2010 23:57:02 16.2 C 12.27 g/m*3 16.2 C 0 km/h

Legende:
   Min
   Max


Maximal/Minimal-Werte vom 23.09.2010 - 23.09.2010

Sensor Min Max Avg
Temp
(Aussen-T/F)
10.4 °C
23-09-2010  06:08:03
26 °C
23-09-2010  16:20:01
16.56 °C
Abs-Feuchte
(Aussen-T/F)
8.1 g/m*3
23-09-2010  06:08:03
12.52 g/m*3
23-09-2010  22:45:02
9.67 g/m*3
Windchill
(Aussen-T/F)
10.4 C
23-09-2010  06:08:03
26 C
23-09-2010  16:20:01
16.42 C

Die Daten stammen von einer Davis Vantage Pro 2 Wetter-Station und werden unter Linux mit der Software wview2wettercgi und aufbereitet. Alle Angaben erfolgen ohne Gewähr für ihre Vollständigkeit oder Richtigkeit.
Kontakt: Rainer Krienke krienke@uni-koblenz.de . Meine Webseiten an der Uni Koblenz oder privat.
Version: $Revision: 0.78 $